sat.trackr.live / text

‹ back to catalog

STARLINK-32031

NORAD 60142 · 2024-120H

PAYLOAD ACTIVE UNKNOWN

§ Identity

Operator
Country
US
Launch date
2024-06-27
Launch site
AFETR
Launch vehicle
Mass (kg)
RCS (m²)

Purposes: comms

External: N2YO · Heavens-Above · Gunter

§ Orbital elements

Epoch: 2026-05-24T21:10:29.932032Z

Period
93.85 min
Inclination
53.1612°
Eccentricity
0.0000970
Mean motion
15.34388724 rev/d
Perigee alt
462.1 km
Apogee alt
463.4 km
Semi-major
6,840.9 km
B*
2.5976e-5
RAAN
325.8749°
Arg perigee
90.1979°
Mean anomaly
269.9135°
Rev number
10,812

§ Raw data

STARLINK-320311 60142U 24120H   26144.88229088  .00000501  00000+0  25976-4 0  99922 60142  53.1612 325.8749 0000970  90.1979 269.9135 15.34388724108124

JSON: /api/v1/satellites/60142 · /tle

For live sub-satellite position, see the globe view (requires WebGL).

§ Visibility from observer

Set your observer location to see the next 7 days of passes ≥ 10°. The values pass through the URL so the page stays shareable.

No JS? Fill the form by hand. The geolocation button needs JavaScript.